Mobridge, SD

6:21 AM CST on November 18, 2017 (GMT -0600)
Mobridge Municipal

Weather History for KMBG - September, 2012

Change the Weather History Date:

Thursday, September 6, 2012

  Actual Average Record
Temperature  
Mean Temperature 64 °F 65 °F  
Max Temperature 78 °F 78 °F 102 °F (1976)
Min Temperature 50 °F 52 °F 31 °F (1929)
Degree Days  
Heating Degree Days 1 3  
Month to date heating degree days 1 17  
Since 1 July heating degree days 11 50  
Cooling Degree Days 0 4  
Month to date cooling degree days 39 25  
Year to date cooling degree days 839 606  
Growing Degree Days 14 (Base 50)    
Moisture  
Dew Point 44 °F    
Average Humidity 53    
Maximum Humidity 77    
Minimum Humidity 28    
Precipitation  
Precipitation 0.00 in 0.05 in 1.22 in (2010)
Month to date precipitation 0.00 0.27  
Year to date precipitation 12.36 14.18  
Sea Level Pressure  
Sea Level Pressure 29.90 in    
Wind  
Wind Speed 10 mph (NE)    
Max Wind Speed 23 mph    
Max Gust Speed 31 mph    
Visibility 10 miles    
Events      
T = Trace of Precipitation, MM = Missing Value Source: NWS Daily Summary

Daily Weather History Graph

Daily Weather History Graph

Search for Another Location

Airport or City:

Trip Planner

Search our weather history database for the weather conditions in past years. The results will help you decide how hot, cold, wet, or windy it might be!

Date:

Astronomy

Sep. 06, 2012 Rise Set
Actual Time 7:09 AM CDT 8:08 PM CDT
Civil Twilight 6:39 AM CDT 8:39 PM CDT
Nautical Twilight 6:03 AM CDT 9:15 PM CDT
Astronomical Twilight 5:25 AM CDT 9:53 PM CDT
Moon 10:59 PM CDT (9/6) 1:31 PM CDT (9/6)
Length of Visible Light 13h 59m
Length of Day
12h 59m
Waning Gibbous, 67% of the Moon is Illuminated
Sep 6
Waning Gibbous
Sep 8
Last Quarter
Sep 15
New
Sep 22
First Quarter
Sep 29
Full

Hourly Weather History & Observations

Time (CDT) Temp. Dew Point Humidity Pressure Visibility Wind Dir Wind Speed Gust Speed Precip Events Conditions
12:52 AM 57.9 °F 41.0 °F 53% 29.90 in 10.0 mi East 4.6 mph - N/A   Clear
1:52 AM 57.0 °F 39.0 °F 51% 29.90 in 10.0 mi East 6.9 mph - N/A   Clear
2:52 AM 52.0 °F 41.0 °F 66% 29.90 in 10.0 mi ESE 5.8 mph - N/A   Clear
3:52 AM 53.1 °F 39.9 °F 61% 29.89 in 10.0 mi ESE 6.9 mph - N/A   Clear
4:52 AM 51.1 °F 43.0 °F 74% 29.88 in 10.0 mi ESE 8.1 mph - N/A   Clear
5:52 AM 52.0 °F 44.1 °F 74% 29.87 in 10.0 mi SE 8.1 mph - N/A   Clear
6:52 AM 51.1 °F 45.0 °F 80% 29.85 in 10.0 mi SE 9.2 mph - N/A   Clear
7:52 AM 54.0 °F 45.0 °F 72% 29.86 in 10.0 mi Calm Calm - N/A   Clear
8:52 AM 66.0 °F 45.0 °F 47% 29.85 in 10.0 mi SSE 9.2 mph - N/A   Clear
9:52 AM 68.0 °F 45.0 °F 43% 29.84 in 10.0 mi SSE 5.8 mph - N/A   Clear
10:52 AM 72.0 °F 45.0 °F 38% 29.85 in 10.0 mi North 9.2 mph - N/A   Clear
11:52 AM 73.0 °F 45.0 °F 37% 29.86 in 10.0 mi North 18.4 mph 23.0 mph N/A   Clear
12:52 PM 73.9 °F 42.1 °F 32% 29.86 in 10.0 mi NNE 16.1 mph 21.9 mph N/A   Clear
1:52 PM 75.0 °F 41.0 °F 29% 29.86 in 10.0 mi North 12.7 mph 20.7 mph N/A   Clear
2:52 PM 75.9 °F 43.0 °F 31% 29.87 in 10.0 mi NNE 17.3 mph 25.3 mph N/A   Clear
3:52 PM 75.0 °F 42.1 °F 31% 29.87 in 10.0 mi NNE 13.8 mph - N/A   Clear
4:52 PM 78.1 °F 42.1 °F 28% 29.87 in 10.0 mi NNE 10.4 mph - N/A   Clear
5:52 PM 75.9 °F 44.1 °F 32% 29.88 in 10.0 mi North 16.1 mph 21.9 mph N/A   Clear
6:52 PM 70.0 °F 46.0 °F 42% 29.93 in 10.0 mi North 16.1 mph - N/A   Clear
7:52 PM 68.0 °F 46.9 °F 47% 29.95 in 10.0 mi North 11.5 mph - N/A   Scattered Clouds
8:52 PM 60.1 °F 46.9 °F 62% 29.96 in 10.0 mi NNE 5.8 mph - N/A   Clear
9:52 PM 61.0 °F 48.0 °F 62% 29.98 in 10.0 mi NE 9.2 mph - N/A   Clear
10:52 PM 59.0 °F 48.0 °F 67% 30.00 in 10.0 mi NE 5.8 mph - N/A   Clear
11:52 PM 57.0 °F 48.9 °F 74% 30.03 in 10.0 mi NNW 5.8 mph - N/A   Clear